TimeCDT,TemperatureF,Dew PointF,Humidity,Sea Level PressureIn,VisibilityMPH,Wind Direction,Wind SpeedMPH,Gust SpeedMPH,PrecipitationIn,Events,Conditions,WindDirDegrees,DateUTC
12:53 AM,72.0,66.9,84,30.17,10.0,Calm,Calm,-,N/A,,Clear,0,2013-07-17 05:53:00
1:53 AM,70.0,66.0,87,30.18,10.0,Calm,Calm,-,N/A,,Clear,0,2013-07-17 06:53:00
2:53 AM,70.0,66.0,87,30.18,10.0,South,4.6,-,N/A,,Clear,180,2013-07-17 07:53:00
3:53 AM,69.1,66.0,90,30.17,10.0,South,4.6,-,N/A,,Partly Cloudy,180,2013-07-17 08:53:00
4:53 AM,69.1,66.0,90,30.17,10.0,Calm,Calm,-,N/A,,Mostly Cloudy,0,2013-07-17 09:53:00
5:53 AM,69.1,66.0,90,30.18,10.0,South,4.6,-,N/A,,Mostly Cloudy,180,2013-07-17 10:53:00
6:53 AM,70.0,66.9,90,30.19,10.0,SSW,4.6,-,N/A,,Scattered Clouds,210,2013-07-17 11:53:00
7:53 AM,73.0,68.0,84,30.19,10.0,SSW,6.9,-,N/A,,Mostly Cloudy,210,2013-07-17 12:53:00
8:53 AM,77.0,69.1,76,30.19,10.0,WSW,6.9,-,N/A,,Scattered Clouds,240,2013-07-17 13:53:00
9:53 AM,80.1,69.1,69,30.18,10.0,WSW,6.9,-,N/A,,Clear,240,2013-07-17 14:53:00
10:53 AM,82.9,69.1,63,30.18,10.0,Variable,4.6,-,N/A,,Clear,0,2013-07-17 15:53:00
11:53 AM,84.9,70.0,61,30.18,10.0,Variable,3.5,-,N/A,,Clear,0,2013-07-17 16:53:00
12:53 PM,84.9,68.0,57,30.18,10.0,South,8.1,-,N/A,,Scattered Clouds,170,2013-07-17 17:53:00
1:53 PM,87.1,70.0,57,30.17,10.0,SSW,6.9,17.3,N/A,,Partly Cloudy,210,2013-07-17 18:53:00
2:53 PM,88.0,69.1,53,30.15,10.0,SSW,10.4,-,N/A,,Scattered Clouds,210,2013-07-17 19:53:00
3:53 PM,89.1,68.0,50,30.13,10.0,SSW,13.8,20.7,N/A,,Partly Cloudy,210,2013-07-17 20:53:00
4:53 PM,88.0,69.1,53,30.12,10.0,SW,13.8,-,N/A,,Clear,230,2013-07-17 21:53:00
5:53 PM,84.9,68.0,57,30.12,10.0,SW,9.2,-,N/A,,Clear,220,2013-07-17 22:53:00
6:53 PM,84.0,68.0,58,30.10,10.0,SW,6.9,-,N/A,,Clear,220,2013-07-17 23:53:00
7:53 PM,82.9,68.0,60,30.09,10.0,SW,9.2,-,N/A,,Clear,220,2013-07-18 00:53:00
8:53 PM,79.0,68.0,69,30.09,10.0,SW,3.5,-,N/A,,Clear,230,2013-07-18 01:53:00
9:53 PM,79.0,66.9,66,30.09,10.0,Calm,Calm,-,N/A,,Mostly Cloudy,0,2013-07-18 02:53:00
10:53 PM,78.1,68.0,71,30.08,10.0,Calm,Calm,-,N/A,,Overcast,0,2013-07-18 03:53:00
11:53 PM,75.9,68.0,76,30.06,10.0,Calm,Calm,-,N/A,,Partly Cloudy,0,2013-07-18 04:53:00